Tracking 19245 objects as of 15-Aug-2018
HD Live streaming from Space Station
objects crossing your sky now

CZ-2D DEB

Track CZ-2D DEB now!
10-day predictions


NORAD ID: 43096
Int'l Code: 2017-084C
Perigee: 482.5 km
Apogee: 506.2 km
Inclination: 97.5 °
Period: 94.4 minutes
Semi major axis: 6865 km
RCS: Unknown
Launch date: December 23, 2017
Source: People's Republic of China (PRC)
Launch site: Jiuquan Satellite Launch Center, China (JSC)

Note: This is SATELLITE DEBRIS
aabbcc
Your satellite tracking list
Your tracking list is empty




NASA's NSSDC Master Catalog

Two Line Element Set (TLE):
1 43096U 17084C   18226.69335201  .00001805  00000-0  72387-4 0  9995
2 43096  97.4636 304.6217 0017261 180.1377 179.9860 15.26199128 35222
Source of the keplerian elements: AFSPC